Powrót do katalogu

COSMOS 1247 DEB

AktywnyHEO
NORAD 12984·DEBRIS·🇷🇺 Russia

Wystrzelony Feb 19, 1981 z Plesetsk Cosmodrome

Loading…

Następne Przeloty (najbliższe 24 godziny)

TLE

ŚwieżeSource: Space-Track

Epoka: Sep 11, 2026, 07:57 UTC

1 12984U 81016F   26254.33175779 -.00000676  00000-0  00000-0 0  9991
2 12984  69.6605   1.3047 6093563 335.9505   4.7426  2.02678686331718

Śledź COSMOS 1247 DEB w czasie rzeczywistym z AllMySat

Download on the App Store